When you browse on this site, cookies collect data to enhance your experience and personalize the content and advertising you see.
Visit our Privacy Policy to learn more. By continuing to use the site, you agree to this use of cookies and data.
  • In Sweden
  • List of Countries
  • For 7 days
  • Water Temperature
  • Satellite Maps
  • Weather Map
  • Weather Widgets
  • user-avatar
    Login

    Hourly Weather Bangor

    Today, 21 November, Wednesday

    Time Temperature Precipitation Wind Pressure Humidity
    00:00 -1°C° 0 mm 4 mps 737 mmHg 91%
    01:00 -1°C° 0 mm 4 mps 736 mmHg 91%
    02:00 0°C° 0 mm 3 mps 736 mmHg 92%
    03:00 0°C° 0 mm 3 mps 736 mmHg 92%
    04:00 0°C° 0 mm 3 mps 736 mmHg 93%
    05:00 0°C° 0 mm 3 mps 736 mmHg 93%
    06:00 0°C° 0 mm 3 mps 736 mmHg 93%
    07:00 0°C° 0 mm 3 mps 737 mmHg 92%
    08:00 0°C° 0 mm 3 mps 738 mmHg 91%
    09:00 0°C° 0 mm 4 mps 738 mmHg 91%
    10:00 +1°C° 0.3 mm 5 mps 739 mmHg 88%
    11:00 +2°C° 0.3 mm 6 mps 739 mmHg 85%
    12:00 +3°C° 0.3 mm 6 mps 740 mmHg 82%
    13:00 +3°C° 0.4 mm 6 mps 740 mmHg 82%
    14:00 +4°C° 0.4 mm 6 mps 741 mmHg 82%
    15:00 +4°C° 0.4 mm 6 mps 741 mmHg 82%
    16:00 +3°C° 0.1 mm 6 mps 742 mmHg 84%
    17:00 +2°C° 0.1 mm 6 mps 743 mmHg 86%
    18:00 +2°C° 0.1 mm 5 mps 743 mmHg 88%
    19:00 +1°C° 0 mm 5 mps 744 mmHg 89%
    20:00 0°C° 0 mm 5 mps 744 mmHg 90%
    21:00 -1°C° 0 mm 4 mps 745 mmHg 91%
    22:00 -1°C° 0 mm 4 mps 745 mmHg 91%
    23:00 -1°C° 0 mm 4 mps 745 mmHg 91%

    Tomorrow, 22 November, Thursday

    Time Temperature Precipitation Wind Pressure Humidity
    00:00 -2°C° 0 mm 4 mps 745 mmHg 91%
    01:00 -2°C° 0 mm 4 mps 745 mmHg 92%
    02:00 -2°C° 0 mm 4 mps 745 mmHg 92%
    03:00 -2°C° 0 mm 4 mps 745 mmHg 93%
    04:00 -3°C° 0 mm 4 mps 745 mmHg 92%
    05:00 -3°C° 0 mm 4 mps 745 mmHg 92%
    06:00 -3°C° 0 mm 4 mps 745 mmHg 92%
    07:00 -2°C° 0 mm 4 mps 745 mmHg 92%
    08:00 -2°C° 0 mm 4 mps 745 mmHg 92%
    09:00 -1°C° 0 mm 4 mps 745 mmHg 92%
    10:00 0°C° 0 mm 4 mps 745 mmHg 90%
    11:00 +1°C° 0 mm 4 mps 744 mmHg 87%
    12:00 +4°C° 0 mm 4 mps 744 mmHg 85%
    13:00 +4°C° 0 mm 4 mps 744 mmHg 86%
    14:00 +4°C° 0 mm 4 mps 744 mmHg 86%
    15:00 +4°C° 0 mm 4 mps 744 mmHg 87%
    16:00 +3°C° 0 mm 4 mps 744 mmHg 89%
    17:00 +3°C° 0 mm 4 mps 744 mmHg 91%
    18:00 +1°C° 0 mm 4 mps 744 mmHg 93%
    19:00 +1°C° 0 mm 4 mps 744 mmHg 93%
    20:00 0°C° 0 mm 4 mps 744 mmHg 94%
    21:00 0°C° 0 mm 4 mps 744 mmHg 94%
    22:00 0°C° 0 mm 4 mps 743 mmHg 95%
    23:00 0°C° 0 mm 4 mps 743 mmHg 95%

    Day after tomorrow, 23 November, Friday

    Time Temperature Precipitation Wind Pressure Humidity
    00:00 +1°C° 0 mm 4 mps 743 mmHg 95%
    01:00 +1°C° 0 mm 4 mps 743 mmHg 95%
    02:00 +1°C° 0 mm 4 mps 743 mmHg 95%
    03:00 +1°C° 0 mm 4 mps 743 mmHg 96%
    04:00 +3°C° 0 mm 4 mps 743 mmHg 96%
    05:00 +3°C° 0 mm 4 mps 743 mmHg 96%
    06:00 +3°C° 0 mm 4 mps 742 mmHg 96%
    07:00 +4°C° 0 mm 4 mps 742 mmHg 96%
    08:00 +4°C° 0 mm 4 mps 742 mmHg 95%
    09:00 +4°C° 0 mm 4 mps 742 mmHg 95%
    10:00 +5°C° 0 mm 4 mps 742 mmHg 93%
    11:00 +6°C° 0 mm 4 mps 742 mmHg 91%
    12:00 +7°C° 0 mm 4 mps 742 mmHg 89%
    13:00 +7°C° 0 mm 4 mps 741 mmHg 89%
    14:00 +7°C° 0 mm 4 mps 741 mmHg 89%
    15:00 +7°C° 0 mm 4 mps 741 mmHg 89%
    16:00 +6°C° 0 mm 4 mps 741 mmHg 91%
    17:00 +6°C° 0 mm 4 mps 741 mmHg 92%
    18:00 +5°C° 0 mm 4 mps 741 mmHg 93%
    19:00 +5°C° 0 mm 4 mps 741 mmHg 94%
    20:00 +4°C° 0 mm 4 mps 741 mmHg 94%
    21:00 +4°C° 0 mm 4 mps 742 mmHg 95%
    22:00 +4°C° 0 mm 4 mps 742 mmHg 95%
    23:00 +3°C° 0 mm 4 mps 742 mmHg 96%

    24 November, Saturday

    Time Temperature Precipitation Wind Pressure Humidity
    00:00 +3°C° 0 mm 3 mps 741 mmHg 96%
    01:00 +3°C° 0 mm 3 mps 741 mmHg 96%
    02:00 +4°C° 0 mm 3 mps 741 mmHg 96%
    03:00 +4°C° 0 mm 3 mps 741 mmHg 96%
    04:00 +4°C° 0.2 mm 3 mps 741 mmHg 96%
    05:00 +4°C° 0.2 mm 3 mps 741 mmHg 96%
    06:00 +4°C° 0.2 mm 3 mps 741 mmHg 96%
    07:00 +4°C° 0.4 mm 4 mps 742 mmHg 95%
    08:00 +4°C° 0.4 mm 4 mps 742 mmHg 95%
    09:00 +4°C° 0.4 mm 4 mps 742 mmHg 95%
    10:00 +5°C° 0.4 mm 4 mps 742 mmHg 94%
    11:00 +5°C° 0.4 mm 4 mps 742 mmHg 93%
    12:00 +5°C° 0.4 mm 4 mps 742 mmHg 92%
    13:00 +5°C° 0.1 mm 4 mps 742 mmHg 92%
    14:00 +5°C° 0.1 mm 4 mps 742 mmHg 91%
    15:00 +6°C° 0.1 mm 4 mps 742 mmHg 91%
    16:00 +5°C° 0 mm 4 mps 742 mmHg 91%
    17:00 +5°C° 0 mm 4 mps 742 mmHg 92%
    18:00 +5°C° 0 mm 4 mps 742 mmHg 92%
    19:00 +5°C° 0 mm 4 mps 742 mmHg 92%
    20:00 +4°C° 0 mm 4 mps 742 mmHg 92%
    21:00 +4°C° 0 mm 4 mps 743 mmHg 92%
    22:00 +4°C° 0 mm 4 mps 742 mmHg 92%
    23:00 +4°C° 0 mm 4 mps 742 mmHg 92%

    25 November, Sunday

    Time Temperature Precipitation Wind Pressure Humidity
    00:00 +3°C° 0 mm 4 mps 742 mmHg 93%
    01:00 +3°C° 0 mm 4 mps 742 mmHg 94%
    02:00 +3°C° 0 mm 4 mps 741 mmHg 94%
    03:00 +1°C° 0 mm 4 mps 741 mmHg 95%
    04:00 +2°C° 0 mm 5 mps 741 mmHg 95%
    05:00 +2°C° 0 mm 5 mps 741 mmHg 95%
    06:00 +2°C° 0 mm 6 mps 740 mmHg 95%
    07:00 +2°C° 0 mm 6 mps 740 mmHg 94%
    08:00 +3°C° 0 mm 6 mps 740 mmHg 93%
    09:00 +3°C° 0 mm 7 mps 740 mmHg 92%
    10:00 +3°C° 0 mm 7 mps 740 mmHg 89%
    11:00 +4°C° 0 mm 7 mps 739 mmHg 87%
    12:00 +4°C° 0 mm 7 mps 739 mmHg 85%
    13:00 +4°C° 0 mm 7 mps 739 mmHg 85%
    14:00 +4°C° 0 mm 7 mps 738 mmHg 84%
    15:00 +4°C° 0 mm 7 mps 738 mmHg 84%
    16:00 +4°C° 0 mm 7 mps 738 mmHg 85%
    17:00 +3°C° 0 mm 7 mps 738 mmHg 86%
    18:00 +3°C° 0 mm 7 mps 738 mmHg 88%
    19:00 +3°C° 0 mm 7 mps 738 mmHg 88%
    20:00 +3°C° 0 mm 6 mps 738 mmHg 89%
    21:00 +3°C° 0 mm 6 mps 738 mmHg 89%
    22:00 +3°C° 0 mm 6 mps 737 mmHg 90%
    23:00 +3°C° 0 mm 6 mps 737 mmHg 90%

    26 November, Monday

    Time Temperature Precipitation Wind Pressure Humidity
    00:00 +3°C° 0 mm 6 mps 737 mmHg 90%
    01:00 +3°C° 0 mm 6 mps 737 mmHg 90%
    02:00 +3°C° 0 mm 7 mps 736 mmHg 89%
    03:00 +3°C° 0 mm 7 mps 736 mmHg 89%
    04:00 +3°C° 0.1 mm 7 mps 736 mmHg 89%
    05:00 +3°C° 0.1 mm 6 mps 736 mmHg 89%
    06:00 +3°C° 0.1 mm 6 mps 736 mmHg 88%
    07:00 +3°C° 0.2 mm 6 mps 736 mmHg 88%
    08:00 +3°C° 0.2 mm 6 mps 736 mmHg 88%
    09:00 +3°C° 0.2 mm 6 mps 736 mmHg 89%
    10:00 +3°C° 0 mm 6 mps 736 mmHg 86%
    11:00 +4°C° 0 mm 6 mps 737 mmHg 84%
    12:00 +4°C° 0 mm 6 mps 737 mmHg 82%
    13:00 +4°C° 0 mm 6 mps 737 mmHg 82%
    14:00 +5°C° 0 mm 5 mps 737 mmHg 83%
    15:00 +5°C° 0 mm 5 mps 737 mmHg 83%
    16:00 +3°C° 0 mm 5 mps 737 mmHg 85%
    17:00 +4°C° 0 mm 4 mps 738 mmHg 86%
    18:00 +3°C° 0 mm 4 mps 738 mmHg 88%
    19:00 +3°C° 0 mm 4 mps 738 mmHg 89%
    20:00 +1°C° 0 mm 4 mps 738 mmHg 89%
    21:00 +1°C° 0 mm 4 mps 738 mmHg 90%
    22:00 +1°C° 0 mm 4 mps 738 mmHg 90%
    23:00 +1°C° 0 mm 4 mps 738 mmHg 90%
    Show more